Location: Cazavet
(43.0017°N, 1.0431°E)
Time: 08:40:00
(UTC+00:00)

Cosmos 220 Rocket - Pass Details

Date: 18 January 2026
Orbit: 540 x 575 km, 74.0° (Epoch: 10 February)

Event Time Altitude Azimuth Distance (km) Brightness Sun altitude
Rises 06:40:50 0° 340° (NNW) 2,789 7.0 -7.8°
Reaches altitude 10° 06:43:04 10° 341° (NNW) 1,882 6.2 -7.4°
Maximum altitude 06:47:16 84° 71° (ENE) 576 4.0 -6.7°
Drops below altitude 10° 06:51:23 10° 159° (SSE) 1,848 7.2 -6.0°
Sets 06:53:33 0° 160° (SSE) 2,733 8.1 -5.7°
